Orangeburg, SC

11:24 PM EST on December 12, 2017 (GMT -0500)
Orangeburg Municipal

Weather History for KOGB - January, 2012

Change the Weather History Date:

Tuesday, January 3, 2012

  Actual Average Record
Temperature  
Mean Temperature 33 °F 45 °F  
Max Temperature 40 °F 56 °F 77 °F (1966)
Min Temperature 25 °F 35 °F 14 °F (1979)
Degree Days  
Heating Degree Days 32 20  
Month to date heating degree days 62 60  
Since 1 July heating degree days 842 964  
Cooling Degree Days 0 0  
Month to date cooling degree days 0 0  
Year to date cooling degree days 0 0  
Moisture  
Dew Point 8 °F    
Average Humidity 37    
Maximum Humidity 50    
Minimum Humidity 23    
Precipitation  
Precipitation 0.00 in 0.12 in 2.11 in (1985)
Month to date precipitation T 0.36  
Year to date precipitation T 0.36  
Sea Level Pressure  
Sea Level Pressure 30.28 in    
Wind  
Wind Speed 10 mph (NW)    
Max Wind Speed 21 mph    
Max Gust Speed 29 mph    
Visibility 10 miles    
Events      
T = Trace of Precipitation, MM = Missing Value Source: NWS Daily Summary

Daily Weather History Graph

Daily Weather History Graph

Search for Another Location

Airport or City:

Trip Planner

Search our weather history database for the weather conditions in past years. The results will help you decide how hot, cold, wet, or windy it might be!

Date:

Astronomy

Jan. 03, 2012 Rise Set
Actual Time 7:27 AM EST 5:27 PM EST
Civil Twilight 7:00 AM EST 5:55 PM EST
Nautical Twilight 6:29 AM EST 6:26 PM EST
Astronomical Twilight 5:59 AM EST 6:56 PM EST
Moon 1:10 PM EST (1/3) 2:22 AM EST (1/3)
Length of Visible Light 10h 54m
Length of Day
9h 59m
Waxing Gibbous, 72% of the Moon is Illuminated
Jan 3
Waxing Gibbous
Jan 9
Full
Jan 16
Last Quarter
Jan 23
New
Jan 30
First Quarter

Hourly Weather History & Observations

Time (EST) Temp. Windchill Dew Point Humidity Pressure Visibility Wind Dir Wind Speed Gust Speed Precip Events Conditions
12:53 AM 34.0 °F 24.6 °F 9.0 °F 35% 30.14 in 10.0 mi NNW 13.8 mph 21.9 mph N/A   Overcast
1:53 AM 32.0 °F 22.5 °F 8.1 °F 37% 30.16 in 10.0 mi NNW 12.7 mph 24.2 mph N/A   Partly Cloudy
2:53 AM 30.0 °F 21.7 °F 8.1 °F 40% 30.18 in 10.0 mi NW 9.2 mph - N/A   Clear
3:53 AM 28.9 °F 20.4 °F 9.0 °F 43% 30.19 in 10.0 mi NW 9.2 mph - N/A   Clear
4:53 AM 28.9 °F 19.2 °F 7.0 °F 40% 30.21 in 10.0 mi NNW 11.5 mph 19.6 mph N/A   Clear
5:53 AM 28.0 °F 20.0 °F 7.0 °F 41% 30.25 in 10.0 mi NW 8.1 mph - N/A   Clear
6:53 AM 27.0 °F 18.7 °F 7.0 °F 43% 30.27 in 10.0 mi NW 8.1 mph - N/A   Clear
7:53 AM 27.0 °F 18.7 °F 7.0 °F 43% 30.30 in 10.0 mi WNW 8.1 mph - N/A   Clear
9:53 AM 32.0 °F 21.6 °F 7.0 °F 35% 30.35 in 10.0 mi NW 15.0 mph 24.2 mph N/A   Clear
10:53 AM 34.0 °F 24.6 °F 7.0 °F 32% 30.34 in 10.0 mi WNW 13.8 mph 21.9 mph N/A   Clear
11:53 AM 35.1 °F 25.9 °F 6.1 °F 30% 30.31 in 10.0 mi WNW 13.8 mph 26.5 mph N/A   Clear
12:53 PM 37.0 °F 28.5 °F 6.1 °F 28% 30.28 in 10.0 mi NW 13.8 mph - N/A   Clear
1:53 PM 37.9 °F 29.2 °F 7.0 °F 28% 30.25 in 10.0 mi WNW 15.0 mph 26.5 mph N/A   Clear
2:53 PM 39.0 °F 31.8 °F 6.1 °F 26% 30.25 in 10.0 mi NW 11.5 mph 24.2 mph N/A   Clear
4:53 PM 37.9 °F 32.1 °F 5.0 °F 25% 30.27 in 10.0 mi WNW 8.1 mph 18.4 mph N/A   Clear
5:53 PM 35.1 °F 30.1 °F 6.1 °F 30% 30.30 in 10.0 mi WNW 5.8 mph - N/A   Clear
6:53 PM 30.9 °F 24.3 °F 7.0 °F 37% 30.32 in 10.0 mi SW 6.9 mph - N/A   Clear
7:53 PM 28.9 °F 22.8 °F 10.0 °F 45% 30.34 in 10.0 mi West 5.8 mph - N/A   Clear
8:53 PM 30.0 °F 26.5 °F 9.0 °F 41% 30.35 in 10.0 mi NW 3.5 mph - N/A   Clear
9:53 PM 30.0 °F - 9.0 °F 41% 30.36 in 10.0 mi Calm Calm - N/A   Clear
10:53 PM 27.0 °F 23.0 °F 10.9 °F 51% 30.38 in 10.0 mi NW 3.5 mph - N/A   Clear
11:53 PM 26.1 °F 19.4 °F 10.9 °F 53% 30.38 in 10.0 mi North 5.8 mph - N/A   Clear